Waarnemingen

Advertentie
Mijn weer
Agen, Frankrijk (7524): temperatuur & dauwpunt: 18.02.2017 09:00:00 - 24.02.2017 09:00:00 (CET)Agen, Frankrijk (7524): temperatuur 5cm: 18.02.2017 09:00:00 - 24.02.2017 09:00:00 (CET)Agen, Frankrijk (7524): temperatuur -20cm & temperatuur -100cm: 18.02.2017 09:00:00 - 24.02.2017 09:00:00 (CET)Agen, Frankrijk (7524): windsnelheid & windstoten: 18.02.2017 09:00:00 - 24.02.2017 09:00:00 (CET)Agen, Frankrijk (7524): windrichting: 18.02.2017 09:00:00 - 24.02.2017 09:00:00 (CET)Agen, Frankrijk (7524): luchtdruk: 18.02.2017 09:00:00 - 24.02.2017 09:00:00 (CET)Agen, Frankrijk (7524): zicht: 18.02.2017 09:00:00 - 24.02.2017 09:00:00 (CET)Agen, Frankrijk (7524): Zonneschijnduur: 18.02.2017 09:00:00 - 24.02.2017 09:00:00 (CET)Agen, Frankrijk (7524): neerslag: 18.02.2017 09:00:00 - 24.02.2017 09:00:00 (CET)
Datum & Tijd tt [°C] td [°C] tt 5cm [°C] tt -20cm [°C] tt -100cm [°C] ff [km/u] ff [kn] fx [km/u] fx [kn] dd ppp [hPa] vv [km] sd [min] rr [mm]
24.02.2017 09:00:00 7,4 5,5 3,7 9,0 9,5 11 6 15 8 WNW 1019,3 14 42 0,0
24.02.2017 08:00:00 5,8 4,6 3,5 9,1 9,6 11 6 17 9 WNW 1018,3 12 0 0,0
24.02.2017 07:00:00 7,2 5,5 5,4 9,1 9,6 11 6 15 8 WNW 1017,7 15 0 0,0
24.02.2017 06:00:00 7,9 6,5 5,8 9,1 9,6 8 4 11 6 WNW 1017,4 16 0 0,0
24.02.2017 05:00:00 8,2 6,7 7,1 9,0 9,5 6 4 18 10 W 1017,0 19 0 0,0
24.02.2017 04:00:00 8,3 6,8 7,7 9,0 9,5 10 5 37 20 NW 1016,9 20 0 0,8
24.02.2017 03:00:00 9,1 8,2 8,6 9,1 9,5 11 6 16 9 NW 1017,1 1,5 0 0,8
24.02.2017 02:00:00 9,4 7,7 8,6 9,1 9,6 2 1 14 8 N 1016,6 13 0 0,0
24.02.2017 01:00:00 9,7 7,5 8,8 9,0 9,5 8 4 21 11 W 1017,1 9 0 0,0
24.02.2017 00:00:00 10,7 6,4 9,8 9,0 9,5 9 5 20 11 WZW 1017,1 16 0 0,0
23.02.2017 23:00:00 11,0 6,1 9,7 9,0 9,5 10 5 16 9 W 1017,1 41 0 0,0
23.02.2017 22:00:00 10,9 5,4 9,4 9,0 9,5 7 4 24 13 WZW 1017,2 44 0 0,0
23.02.2017 21:00:00 11,1 8,0 9,5 9,0 9,5 10 5 15 8 WNW 1016,5 13 0 0,0
23.02.2017 20:00:00 10,9 8,1 9,1 8,9 9,5 3 2 6 4 WNW 1016,0 13 0 0,0
23.02.2017 19:00:00 11,4 8,1 9,7 8,9 9,5 2 1 4 2 O 1015,3 16 0 0,0
23.02.2017 18:00:00 12,1 7,8 12,3 8,8 9,5 0 0 4 2 N 1014,9 19 0 0,0
23.02.2017 17:00:00 12,2 8,1 13,1 8,8 9,5 6 4 16 9 N 1014,8 23 2 0,0
23.02.2017 16:00:00 12,2 8,3 15,3 8,8 9,5 3 1 16 8 NW 1014,9 23 0 0,0
23.02.2017 15:00:00 11,5 8,2 13,6 8,8 9,5 11 6 19 10 NW 1015,2 24 0 0,0
23.02.2017 14:00:00 10,3 7,9 11,6 8,8 9,5 11 6 20 11 W 1016,1 15 0 0,0
23.02.2017 13:00:00 8,8 7,6 11,3 8,8 9,5 13 7 20 11 WNW 1016,8 9 0 0,0
23.02.2017 12:00:00 7,5 7,1 10,3 8,8 9,5 13 7 21 11 WNW 1016,5 7 0 0,0
23.02.2017 11:00:00 6,0 5,7 7,8 8,8 9,5 4 2 8 5 ONO 1016,3 0,2 0 0,0
23.02.2017 10:00:00 4,8 4,5 5,4 8,9 9,5 8 4 16 9 ZO 1016,3 0,1 0 0,0
23.02.2017 09:00:00 4,2 3,9 3,8 8,9 9,5 8 4 11 6 OZO 1016,0 0,1 0 0,0
23.02.2017 08:00:00 3,5 3,2 3,1 8,9 9,5 7 4 12 7 OZO 1015,6 0,1 0 0,0
23.02.2017 07:00:00 3,1 2,8 3,1 9,0 9,5 8 4 12 6 OZO 1015,8 0,1 0 0,0
23.02.2017 06:00:00 3,4 3,0 3,4 9,0 9,5 7 4 10 5 OZO 1016,1 0,1 0 0,0
23.02.2017 05:00:00 3,6 3,2 1,9 9,1 9,5 5 3 7 4 OZO 1016,4 0,1 0 0,0
23.02.2017 04:00:00 3,2 2,8 0,0 9,1 9,5 3 2 7 4 OZO 1016,8 0,1 0 0,0
23.02.2017 03:00:00 3,2 2,8 0,2 9,2 9,5 4 2 5 3 ZO 1017,4 0,1 0 0,0
23.02.2017 02:00:00 3,8 3,4 -2,5 9,3 9,5 4 2 6 4 O 1018,0 0,1 0 0,0
23.02.2017 01:00:00 2,5 1,8 -2,9 9,4 9,5 7 4 8 5 OZO 1018,4 0,5 0 0,0
23.02.2017 00:00:00 3,3 2,3 -2,8 9,4 9,5 3 2 5 3 OZO 1019,1 4,3 0 0,0
22.02.2017 23:00:00 3,9 2,7 -2,0 9,4 9,5 0 0 2 1 N 1019,4 0,2 0 0,0
22.02.2017 22:00:00 5,2 3,8 -0,9 9,4 9,5 0 0 3 2 N 1020,1 5 0 0,0
22.02.2017 21:00:00 7,2 5,5 -0,1 9,4 9,5 0 0 5 3 N 1020,3 4,7 0 0,0
22.02.2017 20:00:00 9,3 6,9 3,5 9,3 9,5 4 2 7 4 NNW 1020,5 20 0 0,0
22.02.2017 19:00:00 10,4 7,3 6,1 9,2 9,5 6 3 13 7 NNW 1020,7 19 15 0,0
22.02.2017 18:00:00 13,8 8,6 12,6 9,1 9,5 10 6 15 8 NNW 1020,5 37 60 0,0
22.02.2017 17:00:00 15,6 8,6 16,6 9,0 9,5 6 3 15 8 NW 1020,7 41 60 0,0
22.02.2017 16:00:00 16,0 9,0 26,1 8,9 9,4 6 3 13 7 NW 1021,1 28 60 0,0
22.02.2017 15:00:00 15,2 8,7 28,9 8,9 9,4 8 4 16 9 NW 1021,8 20 60 0,0
22.02.2017 14:00:00 16,2 8,7 18,9 8,8 9,4 5 3 15 8 W 1022,7 18 55 0,0
22.02.2017 13:00:00 13,8 8,0 20,3 8,8 9,5 4 2 10 5 WNW 1023,7 7 0 0,0
22.02.2017 12:00:00 14,3 8,5 22,0 8,8 9,4 3 1 7 4 W 1024,1 9 49 0,0
22.02.2017 11:00:00 12,7 8,6 14,0 8,8 9,5 2 1 6 3 NO 1024,2 17 38 0,0
22.02.2017 10:00:00 9,8 8,4 8,5 8,8 9,4 0 0 3 2 N 1024,7 10 0 0,0
22.02.2017 09:00:00 7,6 6,7 7,4 8,8 9,5 3 1 5 3 O 1024,7 14 0 0,0
22.02.2017 08:00:00 7,4 6,7 6,7 8,8 9,5 3 1 4 2 O 1024,3 12 0 0,0
22.02.2017 07:00:00 6,8 6,2 3,2 8,9 9,5 0 0 2 1 N 1024,1 13 0 0,0
22.02.2017 06:00:00 6,2 5,5 2,1 8,9 9,5 0 0 2 1 N 1024,4 3,8 0 0,0
22.02.2017 05:00:00 5,6 4,6 0,4 8,9 9,5 0 0 4 2 N 1024,4 0,1 0 0,0
22.02.2017 04:00:00 7,5 6,6 2,6 9,0 9,5 2 1 3 2 NW 1024,6 9 0 0,0
22.02.2017 03:00:00 8,4 6,9 4,3 9,0 9,5 0 0 4 2 N 1025,0 11 0 0,0
22.02.2017 02:00:00 9,2 7,6 8,0 9,0 9,4 4 2 5 3 W 1025,3 15 0 0,0
22.02.2017 01:00:00 9,0 7,6 7,8 9,0 9,5 4 2 6 4 WZW 1025,6 16 0 0,0
22.02.2017 00:00:00 8,0 6,9 3,7 9,0 9,5 3 1 5 3 WNW 1025,6 16 0 0,0
21.02.2017 23:00:00 7,0 6,1 0,2 9,0 9,5 2 1 4 2 WNW 1025,6 14 0 0,0
21.02.2017 22:00:00 7,0 5,6 0,4 9,0 9,5 0 0 4 2 N 1025,6 9 0 0,0
21.02.2017 21:00:00 8,7 6,8 2,1 9,0 9,5 3 1 3 2 WZW 1025,4 31 0 0,0
21.02.2017 20:00:00 11,4 7,9 4,9 8,9 9,5 3 2 8 4 WNW 1025,4 30 0 0,0
21.02.2017 19:00:00 13,5 8,3 11,7 8,8 9,5 7 4 16 9 N 1025,1 51 0 0,0
21.02.2017 18:00:00 15,1 7,9 14,8 8,7 9,5 0 0 6 3 N 1024,8 16 0 0,0
21.02.2017 17:00:00 16,0 7,7 19,2 8,6 9,5 3 2 9 5 NW 1024,8 2,5 16 0,0
21.02.2017 16:00:00 15,3 7,3 19,0 8,5 9,5 3 2 13 7 NNW 1025,2 58 36 0,0
21.02.2017 15:00:00 16,8 7,2 29,3 8,3 9,5 8 4 24 13 WZW 1025,6 60 60 0,0
21.02.2017 14:00:00 15,6 7,4 26,3 8,3 9,5 3 2 13 7 NNO 1026,5 19 56 0,0
21.02.2017 13:00:00 14,7 7,5 26,8 8,2 9,4 5 3 15 8 W 1027,4 54 60 0,0
21.02.2017 12:00:00 14,1 7,4 20,1 8,2 9,5 6 3 13 7 ZW 1028,2 59 60 0,0
21.02.2017 11:00:00 11,4 6,9 13,6 8,2 9,5 6 3 11 6 WNW 1028,4 20 58 0,0
21.02.2017 10:00:00 9,1 6,2 8,2 8,2 9,5 3 2 5 3 N 1028,4 10 0 0,0
21.02.2017 09:00:00 7,4 6,2 5,3 8,3 9,5 0 0 6 3 N 1028,4 8 0 0,0
21.02.2017 08:00:00 6,7 6,0 6,3 8,3 9,5 3 1 4 2 NNO 1028,1 5 0 0,0
21.02.2017 07:00:00 6,3 5,6 3,3 8,3 9,5 0 0 3 2 N 1027,9 4,2 0 0,0
21.02.2017 06:00:00 4,9 3,9 0,4 8,3 9,5 0 0 3 1 N 1027,7 0,8 0 0,0
21.02.2017 05:00:00 5,9 4,5 1,3 8,3 9,5 0 0 3 2 N 1027,6 3,2 0 0,0
21.02.2017 04:00:00 6,8 5,7 5,6 8,3 9,5 2 1 3 2 O 1027,9 6 0 0,0
21.02.2017 03:00:00 6,3 5,3 4,6 8,4 9,5 3 1 5 3 O 1028,5 4,1 0 0,0
21.02.2017 02:00:00 6,5 5,4 5,0 8,4 9,5 0 0 6 3 N 1028,8 5 0 0,0
21.02.2017 01:00:00 5,9 5,0 3,3 8,4 9,5 0 0 4 2 N 1028,7 6 0 0,0
21.02.2017 00:00:00 5,6 4,7 2,6 8,4 9,5 0 0 4 2 N 1028,7 7 0 0,0
20.02.2017 23:00:00 5,0 4,1 -1,2 8,4 9,5 0 0 6 3 N 1029,2 1,4 0 0,0
20.02.2017 22:00:00 5,5 4,0 0,8 8,4 9,5 2 1 3 2 NO 1029,0 8 0 0,0
20.02.2017 21:00:00 5,7 4,5 -0,2 8,4 9,5 0 0 6 3 N 1028,9 9 0 0,0
20.02.2017 20:00:00 6,4 4,6 0,4 8,4 9,5 0 0 4 2 N 1028,7 9 0 0,0
20.02.2017 19:00:00 8,7 5,6 2,6 8,4 9,5 3 1 4 2 ZZO 1028,3 18 0 0,0
20.02.2017 18:00:00 11,4 5,9 11,4 8,3 9,5 0 0 4 2 N 1028,1 30 0 0,0
20.02.2017 17:00:00 11,8 5,9 14,0 8,2 9,5 0 0 4 2 N 1028,0 31 0 0,0
20.02.2017 16:00:00 11,7 6,4 15,6 8,2 9,5 2 1 7 4 WNW 1028,2 19 0 0,0
20.02.2017 15:00:00 11,1 7,0 15,4 8,2 9,5 - - 6 3 - 1028,4 15 0 0,0
20.02.2017 14:00:00 10,1 7,3 10,1 8,2 9,5 4 2 6 4 NO 1029,3 10 0 0,0
20.02.2017 13:00:00 7,6 5,7 8,5 8,2 9,5 0 0 5 3 N 1030,0 8 0 0,0
20.02.2017 12:00:00 6,5 5,3 7,2 8,2 9,5 4 2 6 3 O 1030,1 6 0 0,0
20.02.2017 11:00:00 5,3 4,4 5,7 8,2 9,5 4 2 6 4 OZO 1030,0 3,7 0 0,0
20.02.2017 10:00:00 4,1 3,5 4,3 8,3 9,5 3 2 7 4 OZO 1030,0 4,1 0 0,0
20.02.2017 09:00:00 3,5 2,9 3,5 8,4 9,5 4 2 9 5 O 1029,9 2,5 0 0,0
20.02.2017 08:00:00 3,4 3,0 -0,3 8,4 9,5 5 3 6 4 O 1029,3 2,9 0 0,0
20.02.2017 07:00:00 2,4 1,8 -1,3 8,4 9,5 0 0 3 2 N 1029,1 1,4 0 0,0
20.02.2017 06:00:00 2,8 1,9 -1,1 8,5 9,5 2 1 5 3 NNW 1029,0 1,0 0 0,0
20.02.2017 05:00:00 4,1 3,2 2,0 8,5 9,5 4 2 9 5 W 1029,1 6 0 0,0
20.02.2017 04:00:00 4,5 3,2 1,7 8,5 9,5 9 5 12 7 WZW 1029,1 9 0 0,0
20.02.2017 03:00:00 5,2 3,5 -0,7 8,6 9,5 8 4 11 6 WZW 1029,2 15 0 0,0
20.02.2017 02:00:00 4,9 2,6 0,8 8,6 9,5 8 4 11 6 W 1029,3 17 0 0,0
20.02.2017 01:00:00 6,4 3,7 0,8 8,7 9,5 8 4 11 6 WZW 1028,9 19 0 0,0
20.02.2017 00:00:00 6,2 4,5 -2,4 8,7 9,5 8 4 12 6 W 1028,9 18 0 0,0
19.02.2017 23:00:00 4,1 2,9 -2,2 8,7 9,5 4 2 6 4 W 1028,8 3,6 0 0,0
19.02.2017 22:00:00 5,6 4,7 -1,2 8,7 9,5 3 2 4 2 WNW 1028,2 4,7 0 0,0
19.02.2017 21:00:00 6,6 4,8 0,3 8,7 9,5 3 1 7 4 WNW 1028,0 8 0 0,0
19.02.2017 20:00:00 9,8 6,7 1,7 8,7 9,5 4 2 10 6 ZW 1027,5 15 0 0,0
19.02.2017 19:00:00 10,0 5,6 2,1 8,6 9,5 3 2 6 4 W 1027,2 11 0 0,0
19.02.2017 18:00:00 11,9 6,8 9,6 8,5 9,5 6 3 10 5 NW 1026,8 18 8 0,0
19.02.2017 17:00:00 13,6 7,1 15,1 8,4 9,5 7 4 14 8 NW 1026,8 20 33 0,0
19.02.2017 16:00:00 14,4 7,9 22,0 8,3 9,5 8 5 22 12 NNW 1027,1 17 60 0,0
19.02.2017 15:00:00 14,0 8,4 23,2 8,2 9,5 12 6 20 11 NW 1027,3 17 60 0,0
19.02.2017 14:00:00 12,5 8,4 17,5 8,2 9,5 10 5 17 9 NNW 1027,6 13 37 0,0
19.02.2017 13:00:00 11,5 8,2 15,3 8,2 9,5 6 4 16 8 NW 1028,3 11 43 0,0
19.02.2017 12:00:00 8,7 7,6 9,7 8,2 9,5 6 3 10 5 O 1028,7 7 4 0,0
19.02.2017 11:00:00 6,1 5,7 6,1 8,3 9,5 7 4 9 5 O 1028,7 4,4 0 0,0
19.02.2017 10:00:00 4,2 3,9 4,3 8,4 9,5 5 3 10 5 O 1028,7 1,5 0 0,0
19.02.2017 09:00:00 3,2 2,8 3,0 8,4 9,5 6 4 11 6 O 1028,1 0,3 0 0,0
19.02.2017 08:00:00 2,7 2,3 -0,1 8,5 9,5 6 4 8 5 O 1027,4 0,2 0 0,0
19.02.2017 07:00:00 1,3 0,9 -4,5 8,5 9,5 2 1 5 3 O 1026,7 0,4 0 0,0
19.02.2017 06:00:00 0,9 0,3 -4,0 8,6 9,5 0 0 6 3 N 1026,4 0,3 0 0,0
19.02.2017 05:00:00 1,4 0,8 -3,8 8,7 9,5 5 3 6 4 OZO 1025,5 2,1 0 0,0
19.02.2017 04:00:00 2,2 1,5 -3,5 8,7 9,5 0 0 6 4 N 1025,0 1,1 0 0,0
19.02.2017 03:00:00 2,7 2,0 -3,2 8,8 9,5 5 3 7 4 O 1024,8 0,9 0 0,0
19.02.2017 02:00:00 3,3 2,4 -1,9 8,8 9,5 5 3 13 7 O 1024,5 7 0 0,0
19.02.2017 01:00:00 3,3 2,1 -1,1 8,8 9,5 9 5 11 6 OZO 1024,3 8 0 0,0
19.02.2017 00:00:00 4,0 2,5 -1,2 8,9 9,5 9 5 11 6 OZO 1023,8 11 0 0,0
18.02.2017 23:00:00 4,5 3,3 -1,7 8,9 9,5 8 4 13 7 O 1023,3 13 0 0,0
18.02.2017 22:00:00 4,9 3,1 -1,7 8,9 9,5 3 2 4 2 OZO 1022,9 18 0 0,0
18.02.2017 21:00:00 6,1 4,1 -0,8 8,9 9,5 2 1 3 2 N 1022,3 21 0 0,0
18.02.2017 20:00:00 7,8 4,9 0,3 8,8 9,5 0 0 2 1 N 1021,7 19 0 0,0
18.02.2017 19:00:00 11,1 5,0 2,8 8,8 9,5 0 0 3 2 N 1021,3 43 12 0,0
18.02.2017 18:00:00 15,5 5,4 11,5 8,7 9,4 0 0 6 3 N 1020,7 58 50 0,0
18.02.2017 17:00:00 16,6 5,8 17,2 8,6 9,4 2 1 7 4 OZO 1020,3 50 60 0,0
18.02.2017 16:00:00 17,1 6,0 25,5 8,5 9,4 5 3 13 7 OZO 1020,3 48 60 0,0
18.02.2017 15:00:00 16,9 5,8 30,5 8,5 9,4 5 3 11 6 OZO 1020,5 55 60 0,0
18.02.2017 14:00:00 14,8 7,6 26,4 8,4 9,4 7 4 14 8 OZO 1021,3 15 60 0,0
18.02.2017 13:00:00 12,3 7,8 13,3 8,5 9,4 10 5 21 11 O 1022,2 14 60 0,0
18.02.2017 12:00:00 9,1 6,5 13,3 8,5 9,4 13 7 18 10 OZO 1023,1 8 60 0,0
18.02.2017 11:00:00 6,5 5,9 7,3 8,5 9,4 9 5 12 7 OZO 1023,2 8 58 0,0
18.02.2017 10:00:00 3,8 3,5 3,5 8,6 9,4 8 5 12 7 OZO 1023,4 0,4 4 0,0
18.02.2017 09:00:00 2,6 2,3 0,1 8,6 9,4 6 3 9 5 OZO 1023,5 0,2 0 0,0

tt = temperatuur
td = dauwpunt
tt 5cm = temperatuur 5cm
tt -20cm = temperatuur -20cm
tt -100cm = temperatuur -100cm
ff = windsnelheid
fx = windstoten
dd = windrichting
ppp = luchtdruk
vv = zicht
sd = Zonneschijnduur
rr = neerslag

Weerstations in de omgeving